KD7CIH Weather Reports


time (UTC)temp
F
wind
direction
speed
knots
gust
knots
rain 1hr
in
rain 24hr
in
rain mn
in
humidity
%
barometer
mb
20260505120315 37 153 5.2 10.4 0.00 0.01 0.00 78 1006.6
20260505115814 38 95 5.2 10.4 0.00 0.01 0.00 77 1006.6
20260505112103 37 155 1.7 4.3 0.00 0.01 0.00 76 1006.7
20260505111601 37 150 1.7 5.2 0.00 0.01 0.00 76 1006.7
20260505111101 37 140 0.9 5.2 0.00 0.01 0.00 76 1006.7
20260505110601 37 135 0.0 5.2 0.00 0.01 0.00 76 1006.7
20260505102103 38 144 0.9 6.1 0.00 0.01 0.00 73 1006.6
20260505101804 38 104 1.7 6.1 0.00 0.01 0.00 72 1006.5
20260505101102 38 84 1.7 6.1 0.00 0.01 0.00 72 1006.5
20260505100602 38 128 1.7 7.0 0.00 0.01 0.00 72 1006.6
20260505100104 38 103 0.9 7.0 0.00 0.01 0.00 71 1006.5
20260505095604 38 119 0.9 5.2 0.00 0.01 0.00 70 1006.5
20260505095102 38 140 0.9 5.2 0.00 0.01 0.00 70 1006.5
20260505094602 39 149 1.7 6.1 0.00 0.01 0.00 69 1006.6
20260505094102 39 74 2.6 6.1 0.00 0.01 0.00 69 1006.5
20260505093603 39 86 1.7 5.2 0.00 0.01 0.00 69 1006.4
20260505093102 39 112 1.7 5.2 0.00 0.01 0.00 68 1006.4
20260505092758 39 99 2.6 5.2 0.00 0.01 0.00 68 1006.3
20260505092102 39 153 3.5 8.7 0.00 0.01 0.00 68 1006.3
20260505091604 39 87 4.3 8.7 0.00 0.01 0.00 68 1006.3
20260505091300 39 189 1.7 8.7 0.00 0.01 0.00 68 1006.3
20260505090601 39 93 1.7 6.1 0.00 0.01 0.00 68 1006.3
20260505090100 39 154 1.7 6.1 0.00 0.01 0.00 68 1006.3
20260505085600 39 138 0.9 8.7 0.00 0.01 0.00 67 1006.1
20260505085100 40 142 0.0 8.7 0.00 0.01 0.00 67 1006.1
20260505084600 40 113 2.6 8.7 0.00 0.01 0.00 66 1006.1
20260505084100 40 88 3.5 10.4 0.00 0.01 0.00 65 1006.0
20260505083601 41 110 3.5 10.4 0.00 0.01 0.00 65 1006.1
20260505083254 41 107 3.5 9.6 0.00 0.01 0.00 65 1006.1
20260505082601 41 84 0.9 6.1 0.00 0.01 0.00 66 1006.1
20260505082100 41 165 1.7 6.1 0.00 0.01 0.00 66 1006.1
20260505081602 41 109 3.5 7.8 0.00 0.01 0.00 66 1006.1
20260505081100 41 81 3.5 7.8 0.00 0.01 0.00 67 1006.1
20260505080601 41 93 4.3 11.3 0.00 0.01 0.00 67 1006.1
20260505080100 41 105 4.3 11.3 0.00 0.01 0.00 67 1006.3
20260505075600 41 200 1.7 7.8 0.00 0.01 0.00 67 1006.4
20260505075100 42 198 0.9 5.2 0.00 0.01 0.00 67 1006.4
20260505074752 42 209 1.7 7.0 0.00 0.01 0.00 66 1006.4
20260505074257 42 145 2.6 7.8 0.00 0.01 0.00 66 1006.5
20260505073600 42 63 2.6 7.8 0.00 0.01 0.00 66 1006.5
20260505073101 42 101 3.5 9.6 0.00 0.01 0.00 66 1006.4
20260505072600 43 83 5.2 9.6 0.00 0.01 0.00 65 1006.3
20260505072103 43 59 5.2 11.3 0.00 0.01 0.00 66 1006.4
20260505071602 43 72 5.2 11.3 0.00 0.01 0.00 66 1006.4
20260505071102 43 68 5.2 11.3 0.00 0.01 0.00 67 1006.3
20260505070602 43 53 5.2 11.3 0.00 0.01 0.00 67 1006.3
20260505070242 43 46 5.2 10.4 0.00 0.01 0.00 68 1006.3
20260505065601 43 40 5.2 10.4 0.00 0.01 0.00 68 1006.3
20260505065102 43 32 6.1 12.2 0.00 0.01 0.00 68 1006.3
20260505064602 43 12 5.2 12.2 0.00 0.01 0.00 69 1006.3
20260505064243 43 14 5.2 9.6 0.00 0.01 0.00 69 1006.4
20260505063601 43 333 5.2 9.6 0.00 0.01 0.00 71 1006.4
20260505063101 43 337 4.3 9.6 0.00 0.01 0.00 72 1006.4
20260505062601 43 14 4.3 9.6 0.00 0.01 0.00 70 1006.4
20260505062242 43 62 3.5 9.6 0.00 0.01 0.00 70 1006.3
20260505061602 43 69 3.5 7.8 0.00 0.01 0.00 71 1006.4
20260505061103 44 17 6.1 7.8 0.00 0.01 0.00 71 1006.3
20260505060602 44 53 6.1 11.3 0.00 0.01 0.00 70 1006.3
20260505055727 45 37 6.1 11.3 0.00 0.01 0.01 70 1006.3
20260505055101 45 54 5.2 11.3 0.00 0.01 0.01 70 1006.1
20260505054601 46 63 5.2 11.3 0.00 0.01 0.01 70 1006.1
20260505054101 46 48 6.1 11.3 0.00 0.01 0.01 69 1006.0
20260505053603 46 59 5.2 8.7 0.01 0.01 0.01 71 1005.9
20260505053226 47 65 6.1 9.6 0.01 0.01 0.01 68 1006.1
20260505052558 47 31 6.1 9.6 0.01 0.01 0.01 70 1006.3
20260505052057 47 73 5.2 8.7 0.01 0.01 0.01 70 1006.0
20260505051557 47 79 5.2 8.7 0.01 0.01 0.01 70 1005.9
20260505051058 47 46 4.3 8.7 0.01 0.01 0.01 69 1006.0
20260505050558 47 63 6.1 16.5 0.01 0.01 0.01 69 1006.1
20260505050220 47 94 7.0 16.5 0.01 0.01 0.01 69 1006.1
20260505041556 51 63 8.7 13.9 0.00 0.00 0.00 46 1006.0
20260505041056 52 59 9.6 16.5 0.00 0.00 0.00 46 1005.9
20260505040555 52 94 9.6 16.5 0.00 0.00 0.00 45 1005.7
20260505040056 52 72 8.7 18.2 0.00 0.00 0.00 46 1005.5
20260505035556 52 53 5.2 18.2 0.00 0.00 0.00 46 1005.5
20260505035055 52 92 2.6 7.0 0.00 0.00 0.00 54 1005.3
20260505034557 52 105 3.5 8.7 0.00 0.00 0.00 53 1005.2
20260505034052 52 162 4.3 8.7 0.00 0.00 0.00 54 1004.9
20260505033719 52 186 6.1 13.0 0.00 0.00 0.00 55 1004.8
20260505033052 53 190 7.0 20.9 0.00 0.00 0.00 53 1004.8
20260505032551 53 267 7.8 20.9 0.00 0.00 0.00 49 1004.7
20260505032051 54 120 13.0 28.7 0.00 0.00 0.00 47 1004.8
20260505031715 55 54 11.3 28.7 0.00 0.00 0.00 45 1004.6
20260505031052 56 123 8.7 19.1 0.00 0.00 0.00 38 1004.1
20260505030551 56 61 10.4 17.4 0.00 0.00 0.00 37 1004.1
20260505030052 56 69 10.4 18.2 0.00 0.00 0.00 36 1004.0
20260505025716 56 65 10.4 18.2 0.00 0.00 0.00 36 1003.8
20260505025051 57 83 11.3 20.9 0.00 0.00 0.00 35 1003.7
20260505024550 57 95 11.3 20.9 0.00 0.00 0.00 35 1003.5
20260505024050 57 98 10.4 19.1 0.00 0.00 0.00 35 1003.5
20260505023549 57 60 11.3 17.4 0.00 0.00 0.00 35 1003.2
20260505023218 57 92 14.8 24.3 0.00 0.00 0.00 35 1003.0
20260505022549 57 98 15.6 24.3 0.00 0.00 0.00 34 1003.0
20260505022049 58 90 14.8 24.3 0.00 0.00 0.00 34 1002.8
20260505021549 58 61 14.8 24.3 0.00 0.00 0.00 34 1002.6
20260505021218 58 88 16.5 24.3 0.00 0.00 0.00 33 1002.5
20260505020537 59 71 15.6 27.8 0.00 0.00 0.00 32 1002.3
20260505020031 60 91 13.9 27.8 0.00 0.00 0.00 31 1002.0
20260505015532 61 69 10.4 22.6 0.00 0.00 0.00 30 1002.2
20260505015031 62 68 7.0 13.9 0.00 0.00 0.00 24 1002.0
20260505014717 62 95 4.3 10.4 0.00 0.00 0.00 24 1002.0
20260505014031 62 65 2.6 7.8 0.00 0.00 0.00 24 1002.2
20260505013717 62 342 2.6 7.8 0.00 0.00 0.00 24 1002.3
20260505013032 62 63 5.2 15.6 0.00 0.00 0.00 24 1002.2
20260505012531 63 56 7.8 15.6 0.00 0.00 0.00 23 1002.3
20260505012031 63 34 9.6 18.2 0.00 0.00 0.00 22 1002.2
20260505011531 63 30 10.4 18.2 0.00 0.00 0.00 22 1001.9
20260505011030 64 20 10.4 18.2 0.00 0.00 0.00 22 1001.8
20260505010717 64 57 9.6 19.1 0.00 0.00 0.00 22 1001.8
20260505010030 64 26 9.6 19.1 0.00 0.00 0.00 22 1001.8
20260505005529 64 37 11.3 20.0 0.00 0.00 0.00 21 1001.8
20260505005215 65 323 10.4 20.0 0.00 0.00 0.00 21 1001.7
20260505004715 66 30 7.0 19.1 0.00 0.00 0.00 20 1001.7
20260505004028 66 22 5.2 10.4 0.00 0.00 0.00 18 1001.7
20260505003530 67 44 6.1 7.8 0.00 0.00 0.00 18 1001.5
20260505003031 67 336 6.1 15.6 0.00 0.00 0.00 18 1001.7
20260505002529 68 335 7.0 15.6 0.00 0.00 0.00 17 1001.5
20260505002029 69 308 6.1 15.6 0.00 0.00 0.00 17 1001.5
20260505001712 69 269 5.2 15.6 0.00 0.00 0.00 17 1001.4
20260505001029 68 311 6.1 10.4 0.00 0.00 0.00 16 1001.5
20260505000530 69 299 6.1 10.4 0.00 0.00 0.00 17 1001.7
20260505000030 68 288 6.1 10.4 0.00 0.00 0.00 17 1001.5
20260504235530 68 23 5.2 11.3 0.00 0.00 0.00 17 1001.5
20260504235030 68 290 5.2 11.3 0.00 0.00 0.00 17 1001.5
20260504234530 67 277 6.1 11.3 0.00 0.00 0.00 17 1001.7
20260504234214 68 337 5.2 11.3 0.00 0.00 0.00 17 1001.7
20260504233530 68 49 4.3 9.6 0.00 0.00 0.00 17 1001.5
20260504233030 68 333 6.1 18.2 0.00 0.00 0.00 17 1001.5
20260504232530 67 41 9.6 18.2 0.00 0.00 0.00 17 1001.5
20260504232216 67 21 10.4 18.2 0.00 0.00 0.00 18 1001.5
20260504231715 68 40 8.7 18.2 0.00 0.00 0.00 17 1001.5
20260504231032 68 34 9.6 15.6 0.00 0.00 0.00 17 1001.5
20260504230531 68 305 9.6 16.5 0.00 0.00 0.00 17 1001.5
20260504230031 68 333 7.8 17.4 0.00 0.00 0.00 16 1001.5
20260504225531 69 347 6.1 17.4 0.00 0.00 0.00 16 1001.5
20260504225030 69 301 5.2 11.3 0.00 0.00 0.00 16 1001.4
20260504224530 69 317 6.1 13.0 0.00 0.00 0.00 16 1001.4
20260504224030 69 340 7.0 13.9 0.00 0.00 0.00 16 1001.7
20260504223530 69 309 6.1 13.9 0.00 0.00 0.00 15 1001.5
20260504223031 69 342 5.2 13.0 0.00 0.00 0.00 16 1001.5
20260504222530 68 278 7.8 17.4 0.00 0.00 0.00 16 1001.7
20260504222216 68 26 9.6 19.1 0.00 0.00 0.00 15 1001.7
20260504221530 69 317 7.8 19.1 0.00 0.00 0.00 15 1001.7
20260504221030 69 42 6.1 12.2 0.00 0.00 0.00 17 1001.8
20260504220530 69 328 7.8 13.0 0.00 0.00 0.00 17 1001.8
20260504220029 69 332 7.8 13.0 0.00 0.00 0.00 17 1001.9
20260504215529 68 0 5.2 12.2 0.00 0.00 0.00 18 1002.0
20260504215215 67 327 5.2 10.4 0.00 0.00 0.00 17 1002.0
20260504214529 67 44 6.1 11.3 0.00 0.00 0.00 18 1002.2
20260504214029 66 55 6.1 13.9 0.00 0.00 0.00 18 1002.3
20260504213529 67 327 6.1 13.9 0.00 0.00 0.00 18 1002.5
20260504213029 67 302 8.7 15.6 0.00 0.00 0.00 17 1002.5
20260504212528 68 325 7.0 15.6 0.00 0.00 0.00 16 1002.6
20260504212029 69 12 3.5 10.4 0.00 0.00 0.00 16 1002.6
20260504211529 69 222 4.3 17.4 0.00 0.00 0.00 16 1002.6
20260504211029 68 265 7.0 17.4 0.00 0.00 0.00 16 1002.6
20260504210529 67 24 8.7 18.2 0.00 0.00 0.00 16 1002.8
20260504210029 67 318 7.8 18.2 0.00 0.00 0.00 17 1002.8
20260504205715 67 346 5.2 12.2 0.00 0.00 0.00 17 1002.9
20260504205029 66 250 7.0 13.9 0.00 0.00 0.00 16 1002.9
20260504204529 67 308 6.1 13.9 0.00 0.00 0.00 15 1003.0
20260504204029 67 292 6.1 12.2 0.00 0.00 0.00 16 1003.0
20260504203530 67 279 7.8 13.0 0.00 0.00 0.00 15 1003.1
20260504203030 68 18 7.8 13.0 0.00 0.00 0.00 16 1003.1
20260504202530 67 272 6.1 12.2 0.00 0.00 0.00 17 1003.1
20260504202029 68 250 5.2 13.9 0.00 0.00 0.00 16 1003.2
20260504201529 67 262 4.3 13.9 0.00 0.00 0.00 17 1003.4
20260504201029 67 173 4.3 10.4 0.00 0.00 0.00 17 1003.4
20260504200528 66 56 5.2 10.4 0.00 0.00 0.00 17 1003.6
20260504200214 66 70 6.1 10.4 0.00 0.00 0.00 17 1003.6
20260504195530 66 333 6.1 11.3 0.00 0.00 0.00 17 1003.7
20260504195030 67 296 7.0 11.3 0.00 0.00 0.00 17 1003.7
20260504194530 67 336 6.1 11.3 0.00 0.00 0.00 18 1003.6
20260504194214 67 15 5.2 11.3 0.00 0.00 0.00 17 1003.8
20260504193531 67 281 5.2 11.3 0.00 0.00 0.00 17 1003.7
20260504193030 66 346 5.2 11.3 0.00 0.00 0.00 18 1004.0
20260504192530 66 291 4.3 11.3 0.00 0.00 0.00 18 1004.0
20260504192030 65 329 5.2 12.2 0.00 0.00 0.00 18 1004.1
20260504191530 65 288 7.0 12.2 0.00 0.00 0.00 18 1004.2
20260504191216 65 311 6.1 13.0 0.00 0.00 0.00 17 1004.2
20260504190534 66 53 7.0 13.9 0.00 0.00 0.00 18 1004.2
20260504190030 66 329 7.8 13.9 0.00 0.00 0.00 18 1004.4
20260504185532 67 50 5.2 13.0 0.00 0.00 0.00 18 1004.4
20260504185030 66 14 3.5 10.4 0.00 0.00 0.00 18 1004.4
20260504184530 66 231 3.5 10.4 0.00 0.00 0.00 20 1004.7
20260504184216 65 286 5.2 10.4 0.00 0.00 0.00 19 1004.8
20260504183715 65 337 6.1 10.4 0.00 0.00 0.00 19 1004.8
20260504183031 65 299 6.1 11.3 0.00 0.00 0.00 20 1004.8
20260504182715 64 241 6.1 12.2 0.00 0.00 0.00 19 1004.9
20260504182031 65 317 4.3 12.2 0.00 0.00 0.00 19 1005.0
20260504181530 65 245 3.5 12.2 0.00 0.00 0.00 19 1005.0
20260504181030 65 342 2.6 12.2 0.00 0.00 0.00 20 1005.0
20260504180716 65 261 2.6 9.6 0.00 0.00 0.00 20 1005.2
20260504180134 64 217 3.5 7.8 0.00 0.00 0.00 21 1005.3
20260504175531 64 273 2.6 7.8 0.00 0.00 0.00 20 1005.3
20260504175030 64 284 2.6 7.8 0.00 0.00 0.00 21 1005.4
20260504174529 64 29 4.3 8.7 0.00 0.00 0.00 21 1005.4
20260504174030 64 88 3.5 8.7 0.00 0.00 0.00 21 1005.5
20260504173531 64 32 1.7 5.2 0.00 0.00 0.00 21 1005.7
20260504173215 65 59 1.7 7.0 0.00 0.00 0.00 22 1005.5
20260504172528 64 233 3.5 7.0 0.00 0.00 0.00 23 1005.7
20260504172030 63 73 3.5 7.0 0.00 0.00 0.00 24 1005.7
20260504171713 63 96 3.5 9.6 0.00 0.00 0.00 23 1005.7
20260504171029 63 207 4.3 9.6 0.00 0.00 0.00 24 1005.8
20260504170528 64 255 5.2 9.6 0.00 0.00 0.00 24 1005.8
20260504130648 38 17 0.9 1.7 0.00 0.00 0.00 58 1006.7
20260504130147 37 16 1.7 4.3 0.00 0.00 0.00 59 1006.6